User: anonymous   Login
Location: Unspecified
(0.0000°N, 0.0000°E)
Time: 15:19:47
(UTC+00:00)
Language:

TET - Orbit

View from above orbital plane
View from above orbital plane
View from above satellite
View from above satellite

Ground track
Ground track

The orbit data is extracted from the following two-line orbital elements,

1 38710U 12039D   22027.10983745  .00018243  00000-0  23141-3 0  9996
2 38710  97.5277  98.5404 0001777 154.5031 205.6313 15.59501178535318
Epoch (UTC): 27 January 2022 02:38:09
Eccentricity: 0.0001777
inclination: 97.5277°
perigee height: 388 km
apogee height: 390 km
right ascension of ascending node: 98.5404°
argument of perigee: 154.5031°
revolutions per day: 15.59501178
mean anomaly at epoch: 205.6313°
orbit number at epoch: 53531

The dashed part of the orbit path shows where the satellite is in the earth's shadow,  

DLR